Location: Blanot
(47.1713°N, 4.2340°E)
Time: 08:51:32
(UTC+00:00)

Cosmos 405 Rocket - Pass Details

Date: 14 July 2020
Orbit: 489 x 554 km, 81.3° (Epoch: 14 August)

Event Time Altitude Azimuth Distance (km) Brightness Sun altitude
Exits shadow 00:52:19 42° 135° (SE) 748 3.2 -19.7°
Maximum altitude 00:53:05 49° 97° (E) 666 3.2 -19.7°
Drops below altitude 10° 00:56:45 10° 22° (NNE) 1,724 6.6 -19.5°
Sets 00:58:54 0° 16° (NNE) 2,605 7.9 -19.4°
